Station SKTA2 - 9452400 - Skagway, AK Image indicating link to RSS feed of recent meteorological observations for station SKTA2


Conditions at SKTA2 as of
(5:30 am AKDT)
1330 GMT on 07/23/2024:
     

Click on the graph icon in the table below to see a time series plot of the last five days of that observation.

5-day plot - Atmospheric Pressure Atmospheric Pressure (PRES):29.90 in
5-day plot - Air Temperature Air Temperature (ATMP): 54.3 °F
5-day plot - Water Temperature Water Temperature (WTMP): 48.4 °F
NOS Water Level Observation Network Water Level
Previous observations
TIME
(AKDT)
5-day plot - Wind Direction
WDIR
 
5-day plot - Wind Speed
WSPD
kts
5-day plot - Wind Gust
GST
kts
5-day plot - Wave Height
WVHT
ft
5-day plot - Dominant Wave Period
DPD
sec
5-day plot - Average Wave Period
APD
sec
5-day plot - Mean Wave Direction
MWD
 
5-day plot - Atmospheric Pressure
PRES
in
5-day plot - Pressure Tendency
PTDY
in
5-day plot - Air Temperature
ATMP
°F
5-day plot - Water Temperature
WTMP
°F
5-day plot - Dew Point
DEWP
°F
5-day plot - Salinity
SAL
psu
5-day plot - Visibility
VIS
nmi
5-day plot - Tide (above MLLW)
TIDE
ft
2024-07-23 05:24 am-------29.90- 54.5 48.4----
2024-07-23 05:18 am-------29.90- 54.7 48.4----
2024-07-23 05:12 am-------29.90- 54.7 48.4----
2024-07-23 05:06 am-------29.90- 54.9 48.4----
2024-07-23 05:00 am-------29.91-0.04 55.0 48.4----
2024-07-23 04:54 am-------29.91- 55.0 48.4----
2024-07-23 04:48 am-------29.91- 54.7 48.4----
2024-07-23 04:42 am-------29.91- 54.9 48.4----
2024-07-23 04:36 am-------29.91- 55.6 48.4----
2024-07-23 04:30 am-------29.92- 55.2 48.4----
2024-07-23 04:24 am-------29.92- 55.0 48.4----
2024-07-23 04:18 am-------29.93- 55.2 48.4----
2024-07-23 04:12 am-------29.93- 55.6 48.4----
2024-07-23 04:06 am-------29.93- 55.6 48.4----
2024-07-23 04:00 am-------29.93-0.04 55.2 48.4----
2024-07-23 03:54 am-------29.93- 55.6 48.4----
2024-07-23 03:48 am-------29.94- 55.8 48.4----
2024-07-23 03:42 am-------29.94- 55.4 48.4----
2024-07-23 03:36 am-------29.95- 56.3 48.4----
2024-07-23 03:30 am-------29.95- 55.9 48.4----
2024-07-23 03:24 am-------29.95- 56.1 48.4----
2024-07-23 03:18 am-------29.95- 56.3 48.4----
2024-07-23 03:12 am-------29.95- 55.9 48.4----
2024-07-23 03:06 am-------29.95- 55.6 48.4----
2024-07-23 03:00 am-------29.95-0.02 55.4 48.4----
2024-07-23 02:54 am-------29.95- 56.8 48.4----
2024-07-23 02:48 am-------29.95- 56.5 48.4----
2024-07-23 02:42 am-------29.95- 56.5 48.4----
2024-07-23 02:36 am-------29.96- 56.7 48.4----
2024-07-23 02:30 am-------29.96- 56.7 48.4----
2024-07-23 02:24 am-------29.96- 55.8 48.4----
2024-07-23 02:18 am-------29.96- 56.1 48.4----
2024-07-23 02:12 am-------29.95- 55.8 48.4----
2024-07-23 02:06 am-------29.95- 56.8 48.4----
2024-07-23 02:00 am-------29.94-0.04 56.3 48.4----
2024-07-23 01:54 am-------29.95- 56.8 48.4----
2024-07-23 01:48 am-------29.96- 57.0 48.4----
2024-07-23 01:42 am-------29.96- 57.6 48.4----
2024-07-23 01:36 am-------29.96- 56.5 48.4----
2024-07-23 01:30 am-------29.94- 57.2 48.4----
2024-07-23 01:24 am-------29.95- 57.0 48.4----
2024-07-23 01:18 am-------29.96- 57.4 48.4----
2024-07-23 01:12 am-------29.96- 57.9 48.4----
2024-07-23 01:06 am-------29.97- 58.1 48.4----
2024-07-23 01:00 am-------29.97+0.00 58.3 48.4----
2024-07-23 12:54 am-------29.98- 58.5 48.4----
2024-07-23 12:48 am-------29.98- 58.5 48.4----
2024-07-23 12:42 am-------29.98- 59.4 48.4----
2024-07-23 12:36 am-------29.98- 59.2 48.4----
2024-07-23 12:30 am-------29.98- 59.4 48.4----
2024-07-23 12:24 am-------29.98- 59.5 48.4----
2024-07-23 12:18 am-------29.97- 59.4 48.4----
2024-07-23 12:12 am-------29.97- 59.2 48.4----
2024-07-23 12:06 am-------29.97- 59.4 48.4----
2024-07-23 12:00 am-------29.97+0.00 59.5 48.4----
2024-07-22 11:54 pm-------29.97- 59.5 48.4----
2024-07-22 11:48 pm-------29.97- 59.7 48.4----
2024-07-22 11:42 pm-------29.97- 59.9 48.2----
2024-07-22 11:36 pm-------29.97- 59.9 48.2----
2024-07-22 11:30 pm-------29.98- 59.9 48.2----
2024-07-22 11:24 pm-------29.98- 60.1 48.2----
2024-07-22 11:18 pm-------29.98- 59.5 48.2----
2024-07-22 11:12 pm-------29.98- 59.2 48.2----
2024-07-22 11:06 pm-------29.98- 59.4 48.2----
2024-07-22 11:00 pm-------29.99+0.04 59.9 48.2----
2024-07-22 10:54 pm-------29.99- 60.3 48.2----
2024-07-22 10:48 pm-------29.99- 59.9 48.2----
2024-07-22 10:42 pm-------29.99- 59.5 48.2----
2024-07-22 10:36 pm-------29.99- 60.6 48.2----
2024-07-22 10:30 pm-------29.99- 59.5 48.2----
2024-07-22 10:24 pm-------29.98- 59.4 48.2----
2024-07-22 10:18 pm-------29.98- 60.6 48.2----
2024-07-22 10:12 pm-------29.98- 59.9 48.2----
2024-07-22 10:06 pm-------29.98- 59.9 48.2----
2024-07-22 10:00 pm-------29.98+0.03 59.9 48.2----
2024-07-22 09:54 pm-------29.98- 60.3 48.2----
2024-07-22 09:48 pm-------29.98- 62.6 48.2----
2024-07-22 09:42 pm-------29.97- 62.1 48.2----
2024-07-22 09:36 pm-------29.97- 62.6 48.2----
2024-07-22 09:30 pm-------29.97- 62.8 48.2----
2024-07-22 09:24 pm-------29.97- 62.6 48.2----
2024-07-22 09:18 pm-------29.97- 63.9 48.2----
2024-07-22 09:12 pm-------29.96- 63.1 48.2----
2024-07-22 09:06 pm-------29.96- 63.3 48.2----
2024-07-22 09:00 pm-------29.96+0.00 63.5 48.2----
2024-07-22 08:54 pm-------29.96- 63.5 48.2----
2024-07-22 08:48 pm-------29.96- 63.7 48.2----
2024-07-22 08:42 pm-------29.96- 63.7 48.2----
2024-07-22 08:36 pm-------29.96- 64.2 48.2----
2024-07-22 08:30 pm-------29.96- 63.5 48.2----
2024-07-22 08:24 pm-------29.96- 63.9 48.2----
2024-07-22 08:18 pm-------29.96- 63.9 48.2----
2024-07-22 08:12 pm-------29.95- 64.0 48.0----
2024-07-22 08:06 pm-------29.95- 64.4 48.0----
2024-07-22 08:00 pm-------29.95-0.03 64.2 48.0----
2024-07-22 07:54 pm-------29.95- 64.2 48.0----
2024-07-22 07:48 pm-------29.95- 64.2 48.0----
2024-07-22 07:42 pm-------29.96- 64.2 48.0----
2024-07-22 07:36 pm-------29.96- 64.2 48.0----
2024-07-22 07:30 pm-------29.96- 64.4 48.0----
2024-07-22 07:24 pm-------29.96- 64.4 48.0----
2024-07-22 07:18 pm-------29.95- 65.8 48.0----
2024-07-22 07:12 pm-------29.94- 65.8 48.0----
2024-07-22 07:06 pm-------29.95- 66.2 48.0----
2024-07-22 07:00 pm-------29.95-0.04 66.2 48.0----
2024-07-22 06:54 pm-------29.95- 66.2 48.0----
2024-07-22 06:48 pm-------29.95- 65.7 48.0----
2024-07-22 06:42 pm-------29.95- 65.3 48.0----
2024-07-22 06:36 pm-------29.95- 65.3 48.0----
2024-07-22 06:30 pm-------29.95- 65.1 48.0----
2024-07-22 06:24 pm-------29.95- 64.9 48.0----
2024-07-22 06:18 pm-------29.95- 64.8 48.0----
2024-07-22 06:12 pm-------29.95- 64.9 48.0----
2024-07-22 06:06 pm-------29.96- 65.5 48.0----
2024-07-22 06:00 pm-------29.96-0.05 66.0 48.0----
2024-07-22 05:54 pm-------29.96- 64.9 48.0----
2024-07-22 05:48 pm-------29.96- 64.4 48.0----
2024-07-22 05:42 pm-------29.96- 63.9 48.0----
2024-07-22 05:36 pm-------29.96- 65.1 48.0----
2024-07-22 05:30 pm-------29.97- 65.7 48.0----
2024-07-22 05:24 pm-------29.97- 65.5 48.0----
2024-07-22 05:18 pm-------29.97- 66.6 48.0----
2024-07-22 05:12 pm-------29.97- 66.6 48.0----
2024-07-22 05:06 pm-------29.98- 67.1 48.0----
2024-07-22 05:00 pm-------29.98-0.06 66.9 48.0----
2024-07-22 04:54 pm-------29.98- 66.4 48.0----
2024-07-22 04:48 pm-------29.98- 66.2 48.0----
2024-07-22 04:42 pm-------29.98- 66.4 48.0----
2024-07-22 04:36 pm-------29.98- 65.5 48.0----
2024-07-22 04:30 pm-------29.98- 66.6 48.0----
2024-07-22 04:24 pm-------29.98- 66.0 48.0----
2024-07-22 04:18 pm-------29.98-- 48.0----
2024-07-22 04:12 pm-------29.98- 65.8 48.0----
2024-07-22 04:06 pm-------29.98- 65.8 48.0----
2024-07-22 04:00 pm-------29.99-0.06 66.0 48.0----
2024-07-22 03:54 pm-------29.99- 65.8 48.0----
2024-07-22 03:48 pm-------29.99-- 48.0----
2024-07-22 03:42 pm-------29.99-- 48.0----
2024-07-22 03:36 pm-------30.00-- 48.0----
2024-07-22 03:30 pm-------30.00-- 48.0----
2024-07-22 03:24 pm-------30.00-- 48.0----
2024-07-22 03:18 pm-------30.00- 62.8 48.0----
2024-07-22 03:12 pm-------30.01- 63.7 48.0----
2024-07-22 03:06 pm-------30.01- 64.2 48.0----
2024-07-22 03:00 pm-------30.01-0.06 64.9 48.0----
2024-07-22 02:54 pm-------30.01- 64.9 48.0----
2024-07-22 02:48 pm-------30.01- 64.6 48.0----
2024-07-22 02:42 pm-------30.02- 64.8 48.0----
2024-07-22 02:36 pm-------30.02- 64.9 48.0----
2024-07-22 02:30 pm-------30.02- 64.6 48.0----
2024-07-22 02:24 pm-------30.02- 64.6 48.0----
2024-07-22 02:18 pm-------30.03- 64.0 48.0----
2024-07-22 02:12 pm-------30.03- 63.7 48.0----
2024-07-22 02:06 pm-------30.03- 64.6 48.0----
2024-07-22 02:00 pm-------30.03-0.04 65.8 48.0----
2024-07-22 01:54 pm-------30.03- 64.9 48.0----
2024-07-22 01:48 pm-------30.04- 63.7 48.0----
2024-07-22 01:42 pm-------30.04- 64.2 48.0----
2024-07-22 01:36 pm-------30.04- 64.8 48.0----
2024-07-22 01:30 pm-------30.04-- 48.0----
2024-07-22 01:24 pm-------30.04-- 48.0----
2024-07-22 01:18 pm-------30.04- 63.1 48.0----
2024-07-22 01:12 pm-------30.04- 62.8 48.0----
2024-07-22 01:06 pm-------30.05- 62.2 48.0----
2024-07-22 01:00 pm-------30.05-0.04- 48.0----
2024-07-22 12:54 pm-------30.05-- 48.0----
2024-07-22 12:48 pm-------30.05- 63.7 48.0----
2024-07-22 12:42 pm-------30.05- 64.9 48.0----
2024-07-22 12:36 pm-------30.06- 64.9 48.0----
2024-07-22 12:30 pm-------30.06- 63.7 48.0----
2024-07-22 12:24 pm-------30.06- 63.3 48.0----
2024-07-22 12:18 pm-------30.06- 63.5 48.0----
2024-07-22 12:12 pm-------30.07- 63.7 48.0----
2024-07-22 12:06 pm-------30.07- 63.5 48.0----
2024-07-22 12:00 pm-------30.07-0.03 64.0 48.0----
2024-07-22 11:54 am-------30.07- 64.0 48.0----
2024-07-22 11:48 am-------30.07-- 48.0----
2024-07-22 11:42 am-------30.07-- 48.0----
2024-07-22 11:36 am-------30.07-- 48.0----
2024-07-22 11:30 am-------30.07- 62.1 48.0----
2024-07-22 11:24 am-------30.08- 62.6 48.0----
2024-07-22 11:18 am-------30.07- 63.1 48.0----
2024-07-22 11:12 am-------30.08- 63.0 48.0----
2024-07-22 11:06 am-------30.08- 62.2 48.0----
2024-07-22 11:00 am-------30.08-0.02 61.2 48.0----
2024-07-22 10:54 am-------30.08- 60.6 48.0----
2024-07-22 10:48 am-------30.08- 60.8 48.0----
2024-07-22 10:42 am-------30.08- 60.4 48.0----
2024-07-22 10:36 am-------30.08- 60.8 48.0----
2024-07-22 10:30 am-------30.08- 60.6 48.0----
2024-07-22 10:24 am-------30.08- 61.3 48.0----
2024-07-22 10:18 am-------30.08- 61.9 48.0----
2024-07-22 10:12 am-------30.08- 62.1 48.0----
2024-07-22 10:06 am-------30.08- 62.1 48.0----
2024-07-22 10:00 am-------30.09-0.01 61.7 48.0----
2024-07-22 09:54 am-------30.09- 61.5 48.0----
2024-07-22 09:48 am-------30.09- 60.4 48.0----
2024-07-22 09:42 am-------30.09- 60.6 48.0----
2024-07-22 09:36 am-------30.09- 60.1 48.0----
2024-07-22 09:30 am-------30.09- 60.1 48.0----
2024-07-22 09:24 am-------30.09- 59.7 48.0----
2024-07-22 09:18 am-------30.09- 60.6 48.0----
2024-07-22 09:12 am-------30.09- 60.4 48.0----
2024-07-22 09:06 am-------30.09- 60.1 48.0----
2024-07-22 09:00 am-------30.10+0.00 59.2 48.0----
2024-07-22 08:54 am-------30.10- 59.0 48.0----
2024-07-22 08:48 am-------30.10- 59.0 48.0----
2024-07-22 08:42 am-------30.10- 59.2 48.0----
2024-07-22 08:36 am-------30.10- 59.0 48.0----
2024-07-22 08:30 am-------30.10- 58.6 48.0----
2024-07-22 08:24 am-------30.10- 58.8 48.0----
2024-07-22 08:18 am-------30.10- 58.5 48.0----
2024-07-22 08:12 am-------30.10- 58.5 48.0----
2024-07-22 08:06 am-------30.10- 58.3 48.0----
2024-07-22 08:00 am-------30.10+0.00 58.3 48.0----
2024-07-22 07:54 am-------30.09- 57.7 48.0----
2024-07-22 07:48 am-------30.09- 57.4 48.0----
2024-07-22 07:42 am-------30.09- 57.7 48.0----
2024-07-22 07:36 am-------30.09- 57.7 48.0----
2024-07-22 07:30 am-------30.09- 57.6 48.0----
2024-07-22 07:24 am-------30.09- 57.6 48.0----
2024-07-22 07:18 am-------30.09- 57.7 48.0----
2024-07-22 07:12 am-------30.09- 57.4 48.0----
2024-07-22 07:06 am-------30.09- 57.2 48.0----
2024-07-22 07:00 am-------30.10+0.01 57.0 48.0----
2024-07-22 06:54 am-------30.10- 57.7 48.0----
2024-07-22 06:48 am-------30.09- 57.6 48.0----
2024-07-22 06:42 am-------30.09- 57.0 48.0----
2024-07-22 06:36 am-------30.09- 57.7 48.0----
2024-07-22 06:30 am-------30.09- 57.9 48.0----
2024-07-22 06:24 am-------30.09- 58.3 48.0----
2024-07-22 06:18 am-------30.09- 57.9 48.0----
2024-07-22 06:12 am-------30.09- 57.4 48.0----
2024-07-22 06:06 am-------30.09- 57.2 48.0----
2024-07-22 06:00 am-------30.09+0.01 57.2 48.0----
2024-07-22 05:54 am-------30.09- 57.2 48.0----